Address 0xdc0443bd6811a8a625f1b6eacde431147b1df424 1

 
Txn Hash Method
Block
From
To
Value [Txn Fee]
0xc5c60239ba5333690a03875d277fdfcf7fe1b3002d68b39e7e1f3530a53c079cSwap220639422021-12-02 21:31:251 day 4 hrs ago0xdc0443bd6811a8a625f1b6eacde431147b1df424OUT Metamask: Swap Router20.3 MATIC0.081169172
0x16acf7aa1c23a7aec0cb75ac3884d2efacfd9fd6f66354bec59d75e0084ecb6bSwap219983942021-12-01 3:45:302 days 22 hrs ago0xdc0443bd6811a8a625f1b6eacde431147b1df424OUT Metamask: Swap Router0 MATIC0.063029904
0x2a5932920b83464735b30870c32c91de3672ffaa5bee794ec80a359d6f4f883eApprove219983932021-12-01 3:45:282 days 22 hrs ago0xdc0443bd6811a8a625f1b6eacde431147b1df424OUT 0xfdc26cda2d2440d0e83cd1dee8e8be48405806dc0 MATIC0.011351696
0xdcf9a2be436e2df821f6acca15b04b1ae725fdb677f15f538e5d6ae48f58ffe5Swap219496422021-11-29 21:22:464 days 4 hrs ago0xdc0443bd6811a8a625f1b6eacde431147b1df424OUT Metamask: Swap Router21 MATIC0.04182148
0xd570f5f80e4a4d9d5f21f6f572a8b26bcb48952515c50ea27b1e7e668ea212deSwap219028222021-11-28 15:00:095 days 10 hrs ago0xdc0443bd6811a8a625f1b6eacde431147b1df424OUT Metamask: Swap Router2 MATIC0.065472543
0xba7d5b6e0cb2007029dc0d74fcac93c0251cc751b595d7c963273833b34fa693Swap218789592021-11-28 0:01:406 days 1 hr ago0xdc0443bd6811a8a625f1b6eacde431147b1df424OUT Metamask: Swap Router0 MATIC0.118022401
0x7e930313b4a3a372e9dd62d614aff619a6e54eedc869a19c9b80433b56a219afApprove218789592021-11-28 0:01:406 days 1 hr ago0xdc0443bd6811a8a625f1b6eacde431147b1df424OUT 0x53e0bca35ec356bd5dddfebbd1fc0fd03fabad390 MATIC0.014060312
0x33a2f68e6358c1f310adba568be1b8c6feecf1cbf1ea940478ddff4805c20076Transfer218789582021-11-28 0:01:386 days 1 hr ago0xdc0443bd6811a8a625f1b6eacde431147b1df424OUT0x7fd14c2f75ec9b2a8cc84fd399e1cfe4dd61647016 MATIC0.000126
0x5fae1600e53afc883ae79be022419419b2bfce1550063189cbf54130f3132843Transfer218789072021-11-27 23:59:446 days 1 hr ago0xdc0443bd6811a8a625f1b6eacde431147b1df424OUT0x57c8cd61c5042f7015008458a3f5d90691f5dc4016 MATIC0.000126
0x84a94d679e168eb638dffb5ac99b3cbb1e2f65621953fbd34d6fb83b4a1bd097Transfer218788922021-11-27 23:58:446 days 1 hr ago0xdc0443bd6811a8a625f1b6eacde431147b1df424OUT0x0d994c750993a1dd15624152540c2fe7b60e8f9616 MATIC0.00063
0xaf9c9b9f37ecea346df2d376b02d4e91e24d9441f56b8a3dd5b28195a3746219Transfer218788912021-11-27 23:58:406 days 1 hr ago0xdc0443bd6811a8a625f1b6eacde431147b1df424OUT0xe9e04f81bd9d282ce1a4e3dcd12efbda1bb3cf4316 MATIC0.00063
0xb8fb787bd3839401b97416e4028f09938dafc18bbaf2719f01f4ccb700eae6a2Transfer218788892021-11-27 23:58:326 days 1 hr ago0xdc0443bd6811a8a625f1b6eacde431147b1df424OUT0xfc695b4a094ab49a342f91a20017278f41c62f6416 MATIC0.00063
0x3e2f548feec163356a9e78fff7091d2174abac0b1e8046d020d0fc316f75b69cTransfer218788882021-11-27 23:58:286 days 1 hr ago0xdc0443bd6811a8a625f1b6eacde431147b1df424OUT0xb14be482e4774fe35ffa7f1f8aa0883f7966fae416 MATIC0.00063
0x0c981987a78cd832f32ab619683d226b94a94685662b15051e838e250e0d23bcTransfer218788832021-11-27 23:58:066 days 1 hr ago0xdc0443bd6811a8a625f1b6eacde431147b1df424OUT0x409f8c262619a409d2fbf48d1fb4164757a7aab416 MATIC0.00063
0x0878983414248d303fe5024c7728842ee50219ee6289d2c09b14ea4ecee5b3a2Transfer218788812021-11-27 23:57:586 days 1 hr ago0xdc0443bd6811a8a625f1b6eacde431147b1df424OUT0x643ce5f79a17e184b236949668267c013849147216 MATIC0.00063
0x9389bc2a82ea2d3764dce10a4ca40fdf3af54075c57b942c739bff1e6e805b3dTransfer218788772021-11-27 23:57:426 days 1 hr ago0xdc0443bd6811a8a625f1b6eacde431147b1df424OUT0x9cc83399017ef5ee0648a0038997a11a6cc05f0616 MATIC0.00063
0x26f4a0566fb2dc3dee7f5f3b75af36cc7ed652bd6119a71f789f17b03f9b8dcbSwap218316602021-11-26 19:03:007 days 6 hrs ago0xdc0443bd6811a8a625f1b6eacde431147b1df424OUT Metamask: Swap Router20.02 MATIC0.06761328
0x77915b21c637ddc35d93b8a58943202b54277c80724a727519d5ba8b12aa497aTransfer218316602021-11-26 19:03:007 days 6 hrs ago0xdc0443bd6811a8a625f1b6eacde431147b1df424OUT0x86d5c003202d20d20dcf78998b356531f1b14a4f210 MATIC0.0006993
0x67746fa2128d806447b27d7d23d5485748026ba8e02cf2ca935947505db89c1fTransfer218316602021-11-26 19:03:007 days 6 hrs ago0xdc0443bd6811a8a625f1b6eacde431147b1df424OUT0x9cc83399017ef5ee0648a0038997a11a6cc05f0620 MATIC0.00063
0x73138eeff912602149260c7403bff2da2bd14d1dc1d09d285a3ac089a90c3e2fTransfer218316592021-11-26 19:02:587 days 6 hrs ago0xdc0443bd6811a8a625f1b6eacde431147b1df424OUT0x7fd14c2f75ec9b2a8cc84fd399e1cfe4dd61647020 MATIC0.00063
0xdc251d28ec9329474c7d31a43282eaa2f60c4e1b5396f8c567029ef524755c86Transfer218316582021-11-26 19:02:567 days 6 hrs ago0xdc0443bd6811a8a625f1b6eacde431147b1df424OUT0x57c8cd61c5042f7015008458a3f5d90691f5dc4020 MATIC0.00063
0x197fe04711deb87869d2f0322523af6acb0c94c76520a574d14c509517a08c66Transfer218315472021-11-26 18:54:507 days 6 hrs ago0xdc0443bd6811a8a625f1b6eacde431147b1df424OUT0x0d994c750993a1dd15624152540c2fe7b60e8f9620 MATIC0.00063
0x9de6fd013e0197805d9c1f9e8a1cb3d3e32f31ea6146c758eab203c6f82afa52Transfer218315422021-11-26 18:54:407 days 6 hrs ago0xdc0443bd6811a8a625f1b6eacde431147b1df424OUT0xe9e04f81bd9d282ce1a4e3dcd12efbda1bb3cf4320 MATIC0.00063
0x7f1c2d258d30939faa35480efc2724d75e12c4ecb80057de86462eb27bf44ac3Transfer218315372021-11-26 18:54:307 days 6 hrs ago0xdc0443bd6811a8a625f1b6eacde431147b1df424OUT0xfc695b4a094ab49a342f91a20017278f41c62f6420 MATIC0.00063
0x472f93467c951db8aa47834312379a57ad7ea6d0cf62966a9cd8d056905b4d3cTransfer218315332021-11-26 18:54:227 days 6 hrs ago0xdc0443bd6811a8a625f1b6eacde431147b1df424OUT0xb14be482e4774fe35ffa7f1f8aa0883f7966fae420 MATIC0.00063
[ Download CSV Export 
Latest 2 internal transactions
Parent Txn Hash Block From To Value
0x16acf7aa1c23a7aec0cb75ac3884d2efacfd9fd6f66354bec59d75e0084ecb6b219983942021-12-01 3:45:302 days 22 hrs ago 0xc590175e458b83680867afd273527ff58f74c02b0xdc0443bd6811a8a625f1b6eacde431147b1df42418.965387914446107272 MATIC
0xba7d5b6e0cb2007029dc0d74fcac93c0251cc751b595d7c963273833b34fa693218789592021-11-28 0:01:406 days 1 hr ago 0xc590175e458b83680867afd273527ff58f74c02b0xdc0443bd6811a8a625f1b6eacde431147b1df42435.105247404786010163 MATIC
[ Download CSV Export 
Loading

Contract Name:
0 MATIC

Compiler Version
0

Optimization Enabled:
0 MATIC

Other Settings:
-NA-
Block Transaction Gas Used Reward
Age Block Fee Address BC Fee Address Voting Power Jailed Incoming
Block Uncle Number Difficulty Gas Used Reward
Loading
Loading
Make sure to use the "Vote Down" button for any spammy posts, and the "Vote Up" for interesting conversations.